Previsão horária em Aljaraque

Hoje, 25 Junho, Sexta-feira

Tempo Temperatura Precipitação Vento Pressão Humidade
00:00 +22°C° 0 mm 3 m/s 760 mmHg 53%
01:00 +21°C° 0 mm 3 m/s 760 mmHg 54%
02:00 +21°C° 0 mm 2 m/s 760 mmHg 56%
03:00 +20°C° 0 mm 2 m/s 759 mmHg 58%
04:00 +20°C° 0 mm 2 m/s 760 mmHg 58%
05:00 +21°C° 0 mm 1 m/s 760 mmHg 58%
06:00 +22°C° 0 mm 1 m/s 760 mmHg 58%
07:00 +24°C° 0 mm 1 m/s 760 mmHg 50%
08:00 +27°C° 0 mm 2 m/s 760 mmHg 42%
09:00 +29°C° 0 mm 2 m/s 760 mmHg 34%
10:00 +31°C° 0 mm 2 m/s 760 mmHg 30%
11:00 +34°C° 0 mm 3 m/s 760 mmHg 27%
12:00 +36°C° 0 mm 3 m/s 760 mmHg 23%
13:00 +36°C° 0 mm 4 m/s 759 mmHg 23%
14:00 +36°C° 0 mm 4 m/s 759 mmHg 23%
15:00 +36°C° 0 mm 5 m/s 759 mmHg 22%
16:00 +35°C° 0 mm 5 m/s 759 mmHg 27%
17:00 +33°C° 0 mm 5 m/s 758 mmHg 32%
18:00 +32°C° 0 mm 6 m/s 758 mmHg 36%
19:00 +29°C° 0 mm 5 m/s 759 mmHg 42%
20:00 +27°C° 0 mm 4 m/s 759 mmHg 48%
21:00 +26°C° 0 mm 3 m/s 759 mmHg 53%
22:00 +25°C° 0 mm 3 m/s 759 mmHg 54%
23:00 +25°C° 0 mm 2 m/s 760 mmHg 54%

Amanhã, 26 Junho, Sábado

Tempo Temperatura Precipitação Vento Pressão Humidade
00:00 +24°C° 0 mm 2 m/s 760 mmHg 54%
01:00 +23°C° 0 mm 2 m/s 759 mmHg 54%
02:00 +23°C° 0 mm 2 m/s 759 mmHg 55%
03:00 +21°C° 0 mm 2 m/s 759 mmHg 55%
04:00 +21°C° 0 mm 2 m/s 759 mmHg 57%
05:00 +21°C° 0 mm 2 m/s 759 mmHg 60%
06:00 +21°C° 0 mm 2 m/s 759 mmHg 62%
07:00 +25°C° 0 mm 2 m/s 759 mmHg 56%
08:00 +27°C° 0 mm 3 m/s 759 mmHg 49%
09:00 +29°C° 0 mm 3 m/s 759 mmHg 42%
10:00 +30°C° 0 mm 3 m/s 759 mmHg 39%
11:00 +33°C° 0 mm 4 m/s 759 mmHg 35%
12:00 +34°C° 0 mm 4 m/s 759 mmHg 32%
13:00 +34°C° 0 mm 4 m/s 759 mmHg 31%
14:00 +35°C° 0 mm 5 m/s 758 mmHg 30%
15:00 +35°C° 0 mm 5 m/s 758 mmHg 29%
16:00 +34°C° 0 mm 5 m/s 758 mmHg 32%
17:00 +33°C° 0 mm 5 m/s 757 mmHg 35%
18:00 +32°C° 0 mm 5 m/s 757 mmHg 37%
19:00 +29°C° 0 mm 5 m/s 758 mmHg 41%
20:00 +27°C° 0 mm 4 m/s 758 mmHg 45%
21:00 +25°C° 0 mm 4 m/s 758 mmHg 48%
22:00 +23°C° 0 mm 4 m/s 758 mmHg 46%
23:00 +22°C° 0 mm 4 m/s 758 mmHg 43%

Depois de amanhã, 27 Junho, Domingo

Tempo Temperatura Precipitação Vento Pressão Humidade
00:00 +22°C° 0 mm 3 m/s 758 mmHg 41%
01:00 +21°C° 0 mm 3 m/s 758 mmHg 46%
02:00 +20°C° 0 mm 3 m/s 758 mmHg 51%
03:00 +19°C° 0 mm 3 m/s 758 mmHg 57%
04:00 +19°C° 0 mm 4 m/s 758 mmHg 58%
05:00 +19°C° 0 mm 4 m/s 758 mmHg 60%
06:00 +17°C° 0 mm 5 m/s 759 mmHg 61%
07:00 +21°C° 0 mm 5 m/s 759 mmHg 52%
08:00 +25°C° 0 mm 5 m/s 759 mmHg 42%
09:00 +28°C° 0 mm 5 m/s 759 mmHg 33%
10:00 +30°C° 0 mm 5 m/s 759 mmHg 28%
11:00 +33°C° 0 mm 5 m/s 759 mmHg 24%
12:00 +34°C° 0 mm 5 m/s 759 mmHg 19%
13:00 +35°C° 0 mm 6 m/s 758 mmHg 19%
14:00 +35°C° 0 mm 6 m/s 758 mmHg 19%
15:00 +35°C° 0 mm 7 m/s 758 mmHg 20%
16:00 +35°C° 0 mm 7 m/s 758 mmHg 22%
17:00 +34°C° 0 mm 7 m/s 758 mmHg 23%
18:00 +33°C° 0 mm 7 m/s 757 mmHg 25%
19:00 +30°C° 0 mm 7 m/s 758 mmHg 28%
20:00 +28°C° 0 mm 8 m/s 759 mmHg 30%
21:00 +26°C° 0 mm 9 m/s 759 mmHg 32%
22:00 +23°C° 0 mm 8 m/s 760 mmHg 35%
23:00 +21°C° 0 mm 8 m/s 760 mmHg 37%

28 Junho, Segunda-feira

Tempo Temperatura Precipitação Vento Pressão Humidade
00:00 +20°C° 0 mm 8 m/s 760 mmHg 40%
01:00 +18°C° 0 mm 8 m/s 760 mmHg 45%
02:00 +16°C° 0 mm 8 m/s 760 mmHg 50%
03:00 +15°C° 0 mm 8 m/s 760 mmHg 55%
04:00 +15°C° 0 mm 8 m/s 760 mmHg 59%
05:00 +15°C° 0 mm 8 m/s 760 mmHg 62%
06:00 +13°C° 0 mm 8 m/s 761 mmHg 65%
07:00 +17°C° 0 mm 7 m/s 761 mmHg 53%
08:00 +21°C° 0 mm 6 m/s 761 mmHg 42%
09:00 +24°C° 0 mm 6 m/s 761 mmHg 30%
10:00 +27°C° 0 mm 6 m/s 761 mmHg 26%
11:00 +29°C° 0 mm 5 m/s 760 mmHg 21%
12:00 +33°C° 0 mm 5 m/s 760 mmHg 17%
13:00 +34°C° 0 mm 5 m/s 760 mmHg 16%
14:00 +35°C° 0 mm 6 m/s 759 mmHg 16%
15:00 +36°C° 0 mm 6 m/s 759 mmHg 15%
16:00 +35°C° 0 mm 6 m/s 759 mmHg 16%
17:00 +35°C° 0 mm 6 m/s 759 mmHg 17%
18:00 +34°C° 0 mm 6 m/s 758 mmHg 19%
19:00 +32°C° 0 mm 7 m/s 759 mmHg 23%
20:00 +29°C° 0 mm 8 m/s 759 mmHg 28%
21:00 +27°C° 0 mm 8 m/s 760 mmHg 33%
22:00 +24°C° 0 mm 8 m/s 760 mmHg 40%
23:00 +23°C° 0 mm 8 m/s 760 mmHg 47%

29 Junho, Terça-feira

Tempo Temperatura Precipitação Vento Pressão Humidade
00:00 +21°C° 0 mm 8 m/s 760 mmHg 54%
01:00 +20°C° 0 mm 8 m/s 760 mmHg 58%
02:00 +18°C° 0 mm 7 m/s 760 mmHg 62%
03:00 +17°C° 0 mm 7 m/s 760 mmHg 66%
04:00 +17°C° 0 mm 6 m/s 760 mmHg 67%
05:00 +17°C° 0 mm 6 m/s 760 mmHg 67%
06:00 +17°C° 0 mm 6 m/s 760 mmHg 67%
07:00 +21°C° 0 mm 5 m/s 760 mmHg 56%
08:00 +25°C° 0 mm 5 m/s 760 mmHg 46%
09:00 +28°C° 0 mm 5 m/s 760 mmHg 35%
10:00 +30°C° 0 mm 4 m/s 760 mmHg 30%
11:00 +34°C° 0 mm 4 m/s 760 mmHg 25%
12:00 +36°C° 0 mm 4 m/s 760 mmHg 20%
13:00 +36°C° 0 mm 4 m/s 759 mmHg 19%
14:00 +37°C° 0 mm 5 m/s 759 mmHg 18%
15:00 +38°C° 0 mm 6 m/s 758 mmHg 17%
16:00 +38°C° 0 mm 6 m/s 758 mmHg 18%
17:00 +36°C° 0 mm 6 m/s 758 mmHg 18%
18:00 +35°C° 0 mm 6 m/s 757 mmHg 18%
19:00 +33°C° 0 mm 7 m/s 758 mmHg 21%
20:00 +30°C° 0 mm 7 m/s 758 mmHg 23%
21:00 +28°C° 0 mm 8 m/s 758 mmHg 25%
22:00 +26°C° 0 mm 8 m/s 759 mmHg 30%
23:00 +23°C° 0 mm 8 m/s 759 mmHg 35%

30 Junho, Quarta-feira

Tempo Temperatura Precipitação Vento Pressão Humidade
00:00 +21°C° 0 mm 8 m/s 759 mmHg 39%
01:00 +20°C° 0 mm 8 m/s 759 mmHg 44%
02:00 +18°C° 0 mm 7 m/s 759 mmHg 50%
03:00 +17°C° 0 mm 7 m/s 758 mmHg 55%
04:00 +17°C° 0 mm 6 m/s 758 mmHg 57%
05:00 +17°C° 0 mm 6 m/s 759 mmHg 59%
06:00 +16°C° 0 mm 5 m/s 759 mmHg 61%
07:00 +21°C° 0 mm 5 m/s 759 mmHg 51%
08:00 +25°C° 0 mm 4 m/s 759 mmHg 41%
09:00 +28°C° 0 mm 4 m/s 759 mmHg 31%
10:00 +32°C° 0 mm 4 m/s 758 mmHg 26%
11:00 +34°C° 0 mm 4 m/s 758 mmHg 22%
12:00 +36°C° 0 mm 3 m/s 758 mmHg 17%
13:00 +36°C° 0 mm 4 m/s 758 mmHg 18%
14:00 +37°C° 0 mm 5 m/s 757 mmHg 19%
15:00 +38°C° 0 mm 6 m/s 757 mmHg 20%
16:00 +36°C° 0 mm 6 m/s 757 mmHg 22%
17:00 +35°C° 0 mm 5 m/s 757 mmHg 24%
18:00 +34°C° 0 mm 5 m/s 757 mmHg 27%
19:00 +30°C° 0 mm 5 m/s 757 mmHg 34%
20:00 +28°C° 0 mm 4 m/s 758 mmHg 41%
21:00 +26°C° 0 mm 4 m/s 758 mmHg 48%
22:00 +25°C° 0 mm 4 m/s 758 mmHg 48%
23:00 +23°C° 0 mm 5 m/s 759 mmHg 48%
Mostrar mais